Weather History for Athens, TX

Change the Weather History Date:

Sunday, November 25, 2012

  Actual Average (KTYR) Record (KTYR)
Temperature  
Mean Temperature 52 °F 52 °F  
Max Temperature 71 °F 62 °F 86 °F (1965)
Min Temperature 32 °F 43 °F 21 °F (1975)
Degree Days  
Heating Degree Days 14 13  
Month to date heating degree days 226  
Since 1 July heating degree days 303  
Cooling Degree Days 0 0  
Month to date cooling degree days 14  
Year to date cooling degree days 2407  
Growing Degree Days 2 (Base 50)    
Moisture  
Dew Point 41 °F    
Average Humidity 64    
Maximum Humidity 87    
Minimum Humidity 40    
Precipitation  
Precipitation 0.00 in 0.12 in 2.58 in (1987)
Month to date precipitation 3.47  
Year to date precipitation 40.92  
Snow  
Snow - - - ()
Month to date snowfall  
Since 1 July snowfall  
Since 1 September snowfall  
Snow Depth -    
Sea Level Pressure  
Sea Level Pressure 30.01 in    
Wind  
Wind Speed 5 mph ()    
Max Wind Speed 16 mph    
Max Gust Speed 21 mph    
Visibility 10.0 miles    
Events      
T = Trace of Precipitation, MM = Missing Value Source: Averaged Metar Reports

Daily Weather History Graph

Daily Weather History Graph

Search for Another Location

Airport:

Trip Planner

Search our weather history database for the weather conditions in past years. The results will help you decide how hot, cold, wet, or windy it might be!

Date:

Astronomy

Nov. 25, 2012 Rise Set
Actual Time 7:01 AM CST 5:19 PM CST
Civil Twilight 6:35 AM CST 5:45 PM CST
Nautical Twilight 6:05 AM CST 6:15 PM CST
Astronomical Twilight 5:35 AM CST 6:45 PM CST
Moon 3:31 PM CST 4:23 AM CST
Length of Visible Light 11h 10m
Length of Day
10h 17m
Waxing Gibbous, 93% of the Moon is Illuminated
Nov 25
Waxing Gibbous
Nov 28
Full
Dec 6
Last Quarter
Dec 13
New
Dec 19
First Quarter

Hourly Weather History & Observations

Time (CST) Temp. Windchill Dew Point Humidity Pressure Visibility Wind Dir Wind Speed Gust Speed Precip Events Conditions
12:15 AM 35.8 °F - 29.7 °F 78% 30.14 in 10.0 mi Calm Calm - N/A   Clear
12:35 AM 34.3 °F - 29.3 °F 82% 30.14 in 10.0 mi Calm Calm - N/A   Clear
12:55 AM 33.4 °F - 29.1 °F 84% 30.13 in 10.0 mi Calm Calm - N/A   Clear
1:15 AM 33.1 °F - 29.1 °F 85% 30.12 in 10.0 mi Calm Calm - N/A   Clear
1:35 AM 32.9 °F - 29.3 °F 87% 30.12 in 10.0 mi Calm Calm - N/A   Clear
1:55 AM 32.5 °F 29.3 °F 29.1 °F 87% 30.11 in 10.0 mi SSE 3.5 mph - N/A   Clear
2:15 AM 33.6 °F - 29.1 °F 84% 30.11 in 10.0 mi Calm Calm - N/A   Clear
2:35 AM 33.1 °F - 28.9 °F 85% 30.10 in 10.0 mi Calm Calm - N/A   Clear
2:55 AM 34.0 °F - 29.1 °F 82% 30.10 in 10.0 mi Calm Calm - N/A   Clear
3:15 AM 33.3 °F - 29.1 °F 85% 30.09 in 10.0 mi Calm Calm - N/A   Clear
3:35 AM 33.1 °F - 28.9 °F 85% 30.09 in 10.0 mi Calm Calm - N/A   Clear
3:55 AM 32.9 °F - 29.3 °F 87% 30.08 in 10.0 mi Calm Calm - N/A   Clear
4:15 AM 32.5 °F - 29.1 °F 87% 30.08 in 10.0 mi Calm Calm - N/A   Clear
4:35 AM 32.2 °F - 28.6 °F 87% 30.07 in 10.0 mi Calm Calm - N/A   Clear
4:55 AM 33.6 °F - 29.8 °F 86% 30.07 in 10.0 mi Calm Calm - N/A   Clear
5:15 AM 35.4 °F - 30.6 °F 82% 30.07 in 10.0 mi Calm Calm - N/A   Clear
5:35 AM 36.1 °F - 30.9 °F 81% 30.07 in 10.0 mi Calm Calm - N/A   Clear
5:55 AM 37.0 °F - 31.3 °F 80% 30.07 in 10.0 mi Calm Calm - N/A   Clear
6:15 AM 37.0 °F - 31.1 °F 79% 30.07 in 10.0 mi Calm Calm - N/A   Clear
6:35 AM 36.9 °F - 31.1 °F 80% 30.07 in 10.0 mi Calm Calm - N/A   Clear
6:55 AM 36.1 °F - 31.3 °F 83% 30.07 in 10.0 mi Calm Calm - N/A   Clear
7:15 AM 37.6 °F 33.1 °F 32.2 °F 81% 30.07 in 10.0 mi South 5.8 mph - N/A   Clear
7:35 AM 40.6 °F 36.7 °F 33.1 °F 74% 30.07 in 10.0 mi South 5.8 mph - N/A   Clear
7:55 AM 42.6 °F 39.0 °F 33.3 °F 69% 30.08 in 10.0 mi South 5.8 mph - N/A   Clear
8:15 AM 44.4 °F 40.0 °F 34.2 °F 67% 30.08 in 10.0 mi South 8.1 mph - N/A   Clear
8:35 AM 46.4 °F 42.9 °F 34.7 °F 64% 30.08 in 10.0 mi South 6.9 mph - N/A   Clear
8:55 AM 48.4 °F - 35.8 °F 62% 30.08 in 10.0 mi South 9.2 mph - N/A   Clear
9:15 AM 50.7 °F - 37.2 °F 60% 30.08 in 10.0 mi South 9.2 mph 16.1 mph N/A   Clear
9:35 AM 52.9 °F - 38.3 °F 58% 30.08 in 10.0 mi South 12.7 mph 17.3 mph N/A   Clear
9:55 AM 54.9 °F - 38.5 °F 54% 30.08 in 10.0 mi South 12.7 mph 19.6 mph N/A   Clear
10:15 AM 56.5 °F - 38.1 °F 50% 30.07 in 10.0 mi South 15.0 mph 18.4 mph N/A   Clear
10:35 AM 58.1 °F - 37.6 °F 46% 30.07 in 10.0 mi South 8.1 mph 17.3 mph N/A   Clear
10:55 AM 59.9 °F - 37.2 °F 43% 30.06 in 10.0 mi South 16.1 mph - N/A   Clear
11:15 AM 61.2 °F - 37.6 °F 42% 30.05 in 10.0 mi South 11.5 mph 18.4 mph N/A   Clear
11:35 AM 62.6 °F - 38.7 °F 41% 30.04 in 10.0 mi South 12.7 mph 17.3 mph N/A   Clear
11:55 AM 63.9 °F - 39.9 °F 41% 30.02 in 10.0 mi South 9.2 mph 20.7 mph N/A   Clear
12:15 PM 65.5 °F - 40.8 °F 41% 30.01 in 10.0 mi South 11.5 mph 18.4 mph N/A   Clear
12:35 PM 66.6 °F - 41.7 °F 40% 29.99 in 10.0 mi South 12.7 mph 18.4 mph N/A   Clear
12:55 PM 68.0 °F - 42.8 °F 40% 29.97 in 10.0 mi SSW 9.2 mph 18.4 mph N/A   Clear
1:15 PM 69.1 °F - 44.1 °F 40% 29.96 in 10.0 mi South 13.8 mph 18.4 mph N/A   Clear
1:35 PM 69.8 °F - 44.8 °F 41% 29.95 in 10.0 mi South 11.5 mph 16.1 mph N/A   Clear
1:55 PM 70.2 °F - 45.1 °F 41% 29.94 in 10.0 mi South 9.2 mph 20.7 mph N/A   Clear
2:15 PM 70.5 °F - 45.5 °F 41% 29.94 in 10.0 mi South 11.5 mph - N/A   Clear
2:35 PM 70.7 °F - 46.0 °F 41% 29.93 in 10.0 mi South 15.0 mph 20.7 mph N/A   Clear
2:55 PM 71.4 °F - 46.6 °F 41% 29.92 in 10.0 mi SSE 13.8 mph - N/A   Clear
3:15 PM 71.6 °F - 46.8 °F 41% 29.92 in 10.0 mi South 12.7 mph 19.6 mph N/A   Clear
3:35 PM 71.8 °F - 46.8 °F 41% 29.91 in 10.0 mi South 15.0 mph 20.7 mph N/A   Clear
3:55 PM 71.6 °F - 47.3 °F 42% 29.91 in 10.0 mi South 11.5 mph 18.4 mph N/A   Clear
4:15 PM 71.4 °F - 47.3 °F 42% 29.91 in 10.0 mi South 12.7 mph 17.3 mph N/A   Clear
4:35 PM 70.5 °F - 46.8 °F 43% 29.91 in 10.0 mi South 10.4 mph - N/A   Clear
4:55 PM 69.6 °F - 46.8 °F 44% 29.91 in 10.0 mi South 12.7 mph 19.6 mph N/A   Clear
5:15 PM 68.5 °F - 46.9 °F 46% 29.91 in 10.0 mi South 6.9 mph - N/A   Clear
5:35 PM 67.6 °F - 47.3 °F 48% 29.91 in 10.0 mi South 9.2 mph - N/A   Clear
5:55 PM 66.4 °F - 47.5 °F 51% 29.91 in 10.0 mi South 8.1 mph - N/A   Clear
6:15 PM 65.7 °F - 47.8 °F 53% 29.91 in 10.0 mi South 8.1 mph - N/A   Clear
6:35 PM 64.6 °F - 48.2 °F 55% 29.91 in 10.0 mi SSE 5.8 mph - N/A   Clear
6:55 PM 63.7 °F - 48.4 °F 57% 29.91 in 10.0 mi SSE 5.8 mph - N/A   Clear
7:15 PM 63.0 °F - 48.9 °F 60% 29.92 in 10.0 mi SSE 5.8 mph - N/A   Clear
7:35 PM 62.1 °F - 49.3 °F 63% 29.92 in 10.0 mi South 5.8 mph - N/A   Clear
7:55 PM 62.2 °F - 50.0 °F 64% 29.91 in 10.0 mi South 8.1 mph - N/A   Clear
8:15 PM 62.2 °F - 50.4 °F 65% 29.91 in 10.0 mi South 8.1 mph - N/A   Clear
8:35 PM 62.2 °F - 50.9 °F 66% 29.91 in 10.0 mi South 9.2 mph - N/A   Clear
8:55 PM 62.1 °F - 51.1 °F 67% 29.92 in 10.0 mi South 8.1 mph - N/A   Clear
9:15 PM 61.9 °F - 51.3 °F 68% 29.92 in 10.0 mi South 6.9 mph - N/A   Clear
9:35 PM 61.5 °F - 51.6 °F 70% 29.93 in 10.0 mi South 9.2 mph - N/A   Clear
9:55 PM 61.2 °F - 52.3 °F 73% 29.93 in 10.0 mi South 6.9 mph - N/A   Clear
10:15 PM 61.5 °F - 53.1 °F 74% 29.93 in 10.0 mi South 10.4 mph - N/A   Clear
10:35 PM 61.5 °F - 53.8 °F 76% 29.94 in 10.0 mi South 9.2 mph - N/A   Clear
10:55 PM 61.5 °F - 54.5 °F 78% 29.94 in 10.0 mi South 8.1 mph - N/A   Clear
11:15 PM 61.2 °F - 54.9 °F 80% 29.94 in 10.0 mi South 9.2 mph - N/A   Clear
11:35 PM 61.0 °F - 55.2 °F 81% 29.94 in 10.0 mi South 9.2 mph - N/A   Clear
11:55 PM 61.0 °F - 55.8 °F 83% 29.94 in 10.0 mi South 9.2 mph - N/A   Clear